Terre Haute, IN

10:06 PM EST on December 15, 2019 (GMT -0500)
Terre Haute International-Hulman

Weather History for KHUF - October, 2019

Change the Weather History Date:

Thursday, October 3, 2019

  Actual Average Record
Temperature  
Mean Temperature 68 °F 59 °F  
Max Temperature 80 °F 71 °F 89 °F (1971)
Min Temperature 56 °F 46 °F 28 °F (1974)
Degree Days  
Heating Degree Days 0 7  
Month to date heating degree days 0 21  
Since 1 July heating degree days 2 99  
Cooling Degree Days 3 1  
Month to date cooling degree days 34 3  
Year to date cooling degree days 1298 981  
Growing Degree Days 20 (Base 50)    
Moisture  
Dew Point 61 °F    
Average Humidity 66    
Maximum Humidity 82    
Minimum Humidity 50    
Precipitation  
Precipitation 0.00 in 0.12 in 1.41 in (2014)
Month to date precipitation 0.00 0.33  
Year to date precipitation 37.93 35.03  
Sea Level Pressure  
Sea Level Pressure 30.04 in    
Wind  
Wind Speed 8 mph (WNW)    
Max Wind Speed 18 mph    
Max Gust Speed 28 mph    
Visibility 10 miles    
Events      
T = Trace of Precipitation, MM = Missing Value Source: NWS Daily Summary

Daily Weather History Graph

Daily Weather History Graph

Search for Another Location

Airport or City:

Astronomy

Oct. 03, 2019 Rise Set
Actual Time 7:47 AM EDT 7:28 PM EDT
Civil Twilight 7:20 AM EDT 7:55 PM EDT
Nautical Twilight 6:49 AM EDT 8:26 PM EDT
Astronomical Twilight 6:17 AM EDT 8:58 PM EDT
Moon 1:16 PM EDT (10/3) 11:09 PM EDT (10/3)
Length of Visible Light 12h 35m
Length of Day
11h 41m
Waxing Crescent, 29% of the Moon is Illuminated
Oct 3
Waxing Crescent
Oct 5
First Quarter
Oct 13
Full
Oct 21
Last Quarter
Oct 27
New

Hourly Weather History & Observations

Time (EDT) Temp. Dew Point Humidity Pressure Visibility Wind Dir Wind Speed Gust Speed Precip Events Conditions
12:53 AM 75.0 °F 66.0 °F 73% 29.91 in 10.0 mi South 5.8 mph - N/A   Clear
1:53 AM 71.1 °F 64.9 °F 81% 29.91 in 10.0 mi SSW 3.5 mph - N/A   Clear
2:53 AM 73.9 °F 64.9 °F 73% 29.91 in 10.0 mi SSW 6.9 mph - N/A   Clear
3:53 AM 73.9 °F 64.0 °F 71% 29.91 in 10.0 mi SW 5.8 mph - N/A   Clear
4:53 AM 73.0 °F 64.0 °F 73% 29.92 in 10.0 mi SW 5.8 mph - N/A   Clear
5:53 AM 73.0 °F 64.0 °F 73% 29.93 in 10.0 mi WSW 8.1 mph - N/A   Clear
6:53 AM 72.0 °F 64.0 °F 76% 29.95 in 10.0 mi West 6.9 mph - N/A   Clear
7:53 AM 71.1 °F 64.9 °F 81% 29.96 in 10.0 mi WSW 5.8 mph - N/A   Clear
8:53 AM 73.9 °F 66.0 °F 76% 29.98 in 10.0 mi West 6.9 mph - N/A   Overcast
9:53 AM 75.0 °F 66.9 °F 76% 30.00 in 10.0 mi WNW 8.1 mph - N/A   Overcast
10:27 AM 75.0 °F 68.0 °F 79% 30.03 in 10.0 mi NW 6.9 mph 17.3 mph N/A   Overcast
10:53 AM 75.0 °F 69.1 °F 82% 30.02 in 10.0 mi WNW 5.8 mph - N/A   Overcast
11:53 AM 75.9 °F 66.9 °F 74% 30.04 in 10.0 mi NW 11.5 mph 18.4 mph N/A   Overcast
12:53 PM 77.0 °F 66.0 °F 69% 30.04 in 10.0 mi NW 12.7 mph 20.7 mph N/A   Overcast
1:53 PM 75.9 °F 63.0 °F 64% 30.07 in 10.0 mi WNW 13.8 mph 20.7 mph N/A   Overcast
2:49 PM 78.8 °F 62.6 °F 57% 30.07 in 10.0 mi WNW 11.5 mph - N/A   Scattered Clouds
2:53 PM 78.1 °F 62.1 °F 58% 30.06 in 10.0 mi WNW 6.9 mph - N/A   Scattered Clouds
3:53 PM 79.0 °F 60.1 °F 52% 30.06 in 10.0 mi NNW 9.2 mph 20.7 mph N/A   Scattered Clouds
4:53 PM 78.1 °F 59.0 °F 52% 30.08 in 10.0 mi NNW 11.5 mph - N/A   Clear
5:53 PM 75.0 °F 55.0 °F 50% 30.10 in 10.0 mi NNW 12.7 mph 19.6 mph N/A   Clear
6:53 PM 72.0 °F 54.0 °F 53% 30.11 in 10.0 mi NNW 5.8 mph - N/A   Overcast
7:53 PM 68.0 °F 53.1 °F 59% 30.12 in 10.0 mi NNW 3.5 mph - N/A   Scattered Clouds
8:53 PM 66.0 °F 52.0 °F 60% 30.15 in 10.0 mi North 10.4 mph - N/A   Clear
9:53 PM 62.1 °F 51.1 °F 67% 30.18 in 10.0 mi NNW 11.5 mph 24.2 mph N/A   Clear
10:53 PM 60.1 °F 51.1 °F 72% 30.20 in 10.0 mi NNW 10.4 mph 20.7 mph N/A   Clear
11:53 PM 57.9 °F 51.1 °F 78% 30.21 in 10.0 mi NNW 5.8 mph - N/A   Clear